| time (UTC) | temp F | wind direction | speed MPH | gust MPH | rain 1hr in | rain 24hr in | rain mn in | humidity % | barometer mb |
| 20260506073102 | 67 | 1 | 1.0 | 1.0 | 0.00 | 0.00 | 0.00 | 68 | 1013.8 |
| 20260506072558 | 67 | 1 | 1.0 | 2.0 | 0.00 | 0.00 | 0.00 | 67 | 1013.6 |
| 20260506072056 | 67 | 1 | 1.0 | 3.0 | 0.00 | 0.00 | 0.00 | 67 | 1013.6 |
| 20260506071554 | 67 | 83 | 0.0 | 2.0 | 0.00 | 0.00 | 0.00 | 67 | 1013.5 |
| 20260506071051 | 67 | 86 | 1.0 | 2.0 | 0.00 | 0.00 | 0.00 | 66 | 1013.6 |
| 20260506070548 | 67 | 300 | 3.0 | 7.0 | 0.00 | 0.00 | 0.00 | 67 | 1013.4 |
| 20260506062022 | 68 | 50 | 0.0 | 3.0 | 0.00 | 0.00 | 0.00 | 62 | 1013.8 |
| 20260506061518 | 68 | 97 | 2.0 | 2.0 | 0.00 | 0.00 | 0.00 | 61 | 1014.0 |
| 20260506061016 | 68 | 16 | 1.0 | 3.0 | 0.00 | 0.00 | 0.00 | 60 | 1014.2 |
| 20260506060514 | 68 | 16 | 1.0 | 3.0 | 0.00 | 0.00 | 0.00 | 60 | 1014.3 |
| 20260506050943 | 68 | 69 | 0.0 | 2.0 | 0.00 | 0.00 | 0.00 | 53 | 1014.4 |
| 20260506050441 | 68 | 69 | 0.0 | 1.0 | 0.00 | 0.00 | 0.00 | 53 | 1014.4 |
| 20260506044931 | 68 | 69 | 1.0 | 2.0 | 0.00 | 0.00 | 0.00 | 53 | 1014.3 |
| 20260506044430 | 68 | 69 | 0.0 | 1.0 | 0.00 | 0.00 | 0.00 | 53 | 1014.3 |
| 20260506043926 | 68 | 69 | 0.0 | 3.0 | 0.00 | 0.00 | 0.00 | 52 | 1014.6 |
| 20260506043423 | 68 | 69 | 1.0 | 1.0 | 0.00 | 0.00 | 0.00 | 52 | 1014.6 |
| 20260506042921 | 68 | 69 | 0.0 | 3.0 | 0.00 | 0.00 | 0.00 | 52 | 1014.6 |
| 20260506042420 | 68 | 69 | 0.0 | 1.0 | 0.00 | 0.00 | 0.00 | 51 | 1014.5 |
| 20260506041918 | 68 | 69 | 1.0 | 1.0 | 0.00 | 0.00 | 0.00 | 51 | 1014.3 |
| 20260506041415 | 68 | 69 | 2.0 | 2.0 | 0.00 | 0.00 | 0.00 | 50 | 1014.4 |
| 20260506040912 | 68 | 66 | 0.0 | 1.0 | 0.00 | 0.00 | 0.00 | 50 | 1014.2 |
| 20260506040410 | 68 | 66 | 0.0 | 1.0 | 0.00 | 0.00 | 0.00 | 50 | 1014.1 |
| 20260506035905 | 68 | 66 | 0.0 | 1.0 | 0.00 | 0.00 | 0.00 | 50 | 1014.1 |
| 20260506035403 | 68 | 66 | 1.0 | 2.0 | 0.00 | 0.00 | 0.00 | 50 | 1014.2 |
| 20260506034900 | 68 | 66 | 0.0 | 3.0 | 0.00 | 0.00 | 0.00 | 49 | 1014.4 |
| 20260506034358 | 68 | 66 | 2.0 | 2.0 | 0.00 | 0.00 | 0.00 | 49 | 1014.5 |
| 20260506033854 | 68 | 66 | 2.0 | 3.0 | 0.00 | 0.00 | 0.00 | 49 | 1014.5 |
| 20260506033351 | 68 | 66 | 1.0 | 1.0 | 0.00 | 0.00 | 0.00 | 49 | 1014.8 |
| 20260506032848 | 68 | 66 | 2.0 | 2.0 | 0.00 | 0.00 | 0.00 | 48 | 1014.5 |
| 20260506032345 | 68 | 67 | 2.0 | 3.0 | 0.00 | 0.00 | 0.00 | 48 | 1014.9 |
| 20260506031842 | 68 | 71 | 0.0 | 2.0 | 0.00 | 0.00 | 0.00 | 49 | 1014.4 |
| 20260506031339 | 68 | 2 | 1.0 | 2.0 | 0.00 | 0.00 | 0.00 | 49 | 1014.4 |
| 20260506030837 | 68 | 77 | 3.0 | 3.0 | 0.00 | 0.00 | 0.00 | 49 | 1014.5 |
| 20260506030335 | 68 | 77 | 1.0 | 2.0 | 0.00 | 0.00 | 0.00 | 49 | 1014.4 |
| 20260506025831 | 68 | 77 | 0.0 | 1.0 | 0.00 | 0.00 | 0.00 | 49 | 1014.5 |
| 20260506025327 | 68 | 77 | 0.0 | 1.0 | 0.00 | 0.00 | 0.00 | 49 | 1014.5 |
| 20260506024825 | 68 | 77 | 1.0 | 2.0 | 0.00 | 0.00 | 0.00 | 48 | 1014.5 |
| 20260506024321 | 68 | 17 | 1.0 | 3.0 | 0.00 | 0.00 | 0.00 | 48 | 1014.4 |
| 20260506023817 | 68 | 2 | 1.0 | 2.0 | 0.00 | 0.00 | 0.00 | 48 | 1014.4 |
| 20260506023314 | 68 | 102 | 1.0 | 2.0 | 0.00 | 0.00 | 0.00 | 48 | 1014.2 |
| 20260506022811 | 68 | 51 | 0.0 | 3.0 | 0.00 | 0.00 | 0.00 | 48 | 1014.3 |
| 20260506022309 | 68 | 104 | 0.0 | 1.0 | 0.00 | 0.00 | 0.00 | 49 | 1014.2 |
| 20260506021807 | 68 | 104 | 1.0 | 2.0 | 0.00 | 0.00 | 0.00 | 49 | 1014.4 |
| 20260506021303 | 68 | 105 | 0.0 | 2.0 | 0.00 | 0.00 | 0.00 | 49 | 1014.0 |
| 20260506020800 | 68 | 106 | 0.0 | 2.0 | 0.00 | 0.00 | 0.00 | 50 | 1014.2 |
| 20260506020258 | 68 | 106 | 0.0 | 1.0 | 0.00 | 0.00 | 0.00 | 50 | 1014.4 |
| 20260506015756 | 68 | 106 | 0.0 | 1.0 | 0.00 | 0.00 | 0.00 | 50 | 1014.4 |
| 20260506015253 | 67 | 340 | 0.0 | 1.0 | 0.00 | 0.00 | 0.00 | 50 | 1014.3 |
| 20260506014749 | 67 | 112 | 1.0 | 1.0 | 0.00 | 0.00 | 0.00 | 51 | 1014.3 |
| 20260506014246 | 67 | 112 | 1.0 | 1.0 | 0.00 | 0.00 | 0.00 | 51 | 1014.1 |
| 20260506013743 | 67 | 112 | 1.0 | 3.0 | 0.00 | 0.00 | 0.00 | 51 | 1013.9 |
| 20260506013240 | 66 | 112 | 0.0 | 3.0 | 0.00 | 0.00 | 0.00 | 52 | 1014.1 |
| 20260506012737 | 66 | 112 | 0.0 | 1.0 | 0.00 | 0.00 | 0.00 | 53 | 1014.0 |
| 20260506012234 | 66 | 112 | 0.0 | 1.0 | 0.00 | 0.00 | 0.00 | 53 | 1013.9 |
| 20260506011731 | 66 | 112 | 0.0 | 1.0 | 0.00 | 0.00 | 0.00 | 54 | 1013.9 |
| 20260506011227 | 66 | 112 | 0.0 | 1.0 | 0.00 | 0.00 | 0.00 | 54 | 1013.7 |
| 20260506010726 | 66 | 112 | 0.0 | 1.0 | 0.00 | 0.00 | 0.00 | 59 | 1013.8 |
| 20260506010222 | 66 | 112 | 0.0 | 0.0 | 0.00 | 0.00 | 0.00 | 57 | 1014.0 |
| 20260506005720 | 67 | 112 | 0.0 | 1.0 | 0.00 | 0.00 | 0.00 | 51 | 1014.2 |
| 20260506005216 | 67 | 112 | 0.0 | 1.0 | 0.00 | 0.00 | 0.00 | 50 | 1014.0 |
| 20260506004712 | 68 | 112 | 0.0 | 1.0 | 0.00 | 0.00 | 0.00 | 49 | 1014.1 |
| 20260506004210 | 68 | 112 | 0.0 | 0.0 | 0.00 | 0.00 | 0.00 | 49 | 1013.9 |
| 20260506003706 | 68 | 112 | 0.0 | 1.0 | 0.00 | 0.00 | 0.00 | 48 | 1014.1 |
| 20260506003202 | 68 | 112 | 0.0 | 0.0 | 0.00 | 0.00 | 0.00 | 48 | 1014.1 |
| 20260506002658 | 69 | 112 | 0.0 | 1.0 | 0.00 | 0.00 | 0.00 | 47 | 1014.4 |
| 20260506002155 | 69 | 112 | 0.0 | 0.0 | 0.00 | 0.00 | 0.00 | 46 | 1014.5 |
| 20260506001650 | 69 | 113 | 0.0 | 1.0 | 0.00 | 0.00 | 0.00 | 46 | 1014.3 |
| 20260506001148 | 69 | 112 | 2.0 | 3.0 | 0.00 | 0.00 | 0.00 | 46 | 1014.0 |
| 20260506000645 | 69 | 112 | 0.0 | 2.0 | 0.00 | 0.00 | 0.00 | 45 | 1014.1 |
| 20260506000142 | 69 | 124 | 0.0 | 2.0 | 0.00 | 0.00 | 0.00 | 45 | 1014.0 |
| 20260505235640 | 69 | 48 | 0.0 | 1.0 | 0.00 | 0.00 | 0.00 | 45 | 1013.9 |
| 20260505235138 | 69 | 48 | 2.0 | 2.0 | 0.00 | 0.00 | 0.00 | 45 | 1014.1 |
| 20260505234634 | 70 | 48 | 1.0 | 1.0 | 0.00 | 0.00 | 0.00 | 44 | 1013.8 |
| 20260505234131 | 70 | 66 | 2.0 | 3.0 | 0.00 | 0.00 | 0.00 | 44 | 1013.8 |
| 20260505233628 | 70 | 106 | 0.0 | 5.0 | 0.00 | 0.00 | 0.00 | 43 | 1013.9 |
| 20260505233126 | 70 | 58 | 1.0 | 1.0 | 0.00 | 0.00 | 0.00 | 44 | 1013.3 |
| 20260505232623 | 70 | 58 | 0.0 | 2.0 | 0.00 | 0.00 | 0.00 | 43 | 1013.6 |
| 20260505232120 | 70 | 67 | 0.0 | 1.0 | 0.00 | 0.00 | 0.00 | 43 | 1013.7 |
| 20260505231617 | 70 | 67 | 1.0 | 5.0 | 0.00 | 0.00 | 0.00 | 44 | 1013.8 |
| 20260505231116 | 70 | 106 | 0.0 | 2.0 | 0.00 | 0.00 | 0.00 | 43 | 1013.7 |
| 20260505230614 | 70 | 106 | 0.0 | 1.0 | 0.00 | 0.00 | 0.00 | 43 | 1013.9 |
| 20260505230109 | 70 | 106 | 0.0 | 0.0 | 0.00 | 0.00 | 0.00 | 43 | 1014.5 |
| 20260505225606 | 70 | 106 | 0.0 | 1.0 | 0.00 | 0.00 | 0.00 | 43 | 1014.4 |
| 20260505225102 | 70 | 106 | 1.0 | 1.0 | 0.00 | 0.00 | 0.00 | 43 | 1014.0 |
| 20260505224559 | 70 | 106 | 0.0 | 0.0 | 0.00 | 0.00 | 0.00 | 43 | 1014.3 |
| 20260505224057 | 70 | 106 | 0.0 | 1.0 | 0.00 | 0.00 | 0.00 | 43 | 1014.5 |
| 20260505223554 | 70 | 106 | 0.0 | 0.0 | 0.00 | 0.00 | 0.00 | 42 | 1014.5 |
| 20260505223050 | 71 | 106 | 0.0 | 0.0 | 0.00 | 0.00 | 0.00 | 42 | 1014.5 |
| 20260505222546 | 71 | 106 | 0.0 | 1.0 | 0.00 | 0.00 | 0.00 | 41 | 1014.8 |
| 20260505222043 | 71 | 102 | 2.0 | 2.0 | 0.00 | 0.00 | 0.00 | 40 | 1014.8 |
| 20260505221540 | 71 | 111 | 1.0 | 2.0 | 0.00 | 0.00 | 0.00 | 40 | 1014.6 |
| 20260505221036 | 71 | 111 | 1.0 | 2.0 | 0.00 | 0.00 | 0.00 | 39 | 1015.0 |
| 20260505220533 | 71 | 111 | 0.0 | 1.0 | 0.00 | 0.00 | 0.00 | 39 | 1014.6 |
| 20260505220031 | 72 | 111 | 0.0 | 1.0 | 0.00 | 0.00 | 0.00 | 38 | 1014.5 |
| 20260505215529 | 72 | 111 | 0.0 | 2.0 | 0.00 | 0.00 | 0.00 | 37 | 1014.3 |
| 20260505215027 | 72 | 246 | 2.0 | 3.0 | 0.00 | 0.00 | 0.00 | 37 | 1014.5 |
| 20260505214525 | 72 | 96 | 0.0 | 1.0 | 0.00 | 0.00 | 0.00 | 39 | 1014.2 |
| 20260505214021 | 72 | 235 | 3.0 | 3.0 | 0.00 | 0.00 | 0.00 | 39 | 1014.4 |
| 20260505213519 | 72 | 12 | 0.0 | 2.0 | 0.00 | 0.00 | 0.00 | 40 | 1014.3 |
| 20260505213015 | 72 | 304 | 1.0 | 5.0 | 0.00 | 0.00 | 0.00 | 40 | 1014.2 |
| 20260505212512 | 72 | 271 | 0.0 | 1.0 | 0.00 | 0.00 | 0.00 | 39 | 1014.1 |
| 20260505212009 | 72 | 234 | 2.0 | 2.0 | 0.00 | 0.00 | 0.00 | 38 | 1014.1 |
| 20260505211506 | 73 | 84 | 0.0 | 1.0 | 0.00 | 0.00 | 0.00 | 38 | 1014.2 |
| 20260505211003 | 73 | 81 | 0.0 | 2.0 | 0.00 | 0.00 | 0.00 | 37 | 1014.5 |
| 20260505210459 | 73 | 263 | 1.0 | 5.0 | 0.00 | 0.00 | 0.00 | 37 | 1014.2 |
| 20260505205956 | 73 | 118 | 1.0 | 1.0 | 0.00 | 0.00 | 0.00 | 40 | 1014.3 |
| 20260505205455 | 73 | 239 | 0.0 | 2.0 | 0.00 | 0.00 | 0.00 | 40 | 1014.2 |
| 20260505204951 | 73 | 239 | 0.0 | 2.0 | 0.00 | 0.00 | 0.00 | 40 | 1014.3 |
| 20260505204449 | 73 | 234 | 2.0 | 6.0 | 0.00 | 0.00 | 0.00 | 39 | 1014.3 |
| 20260505203946 | 73 | 194 | 1.0 | 7.0 | 0.00 | 0.00 | 0.00 | 39 | 1014.5 |
| 20260505203442 | 74 | 267 | 4.0 | 7.0 | 0.00 | 0.00 | 0.00 | 35 | 1014.5 |
| 20260505202938 | 74 | 313 | 4.0 | 6.0 | 0.00 | 0.00 | 0.00 | 38 | 1014.4 |
| 20260505202435 | 75 | 150 | 2.0 | 5.0 | 0.00 | 0.00 | 0.00 | 39 | 1014.4 |
| 20260505201931 | 74 | 81 | 2.0 | 3.0 | 0.00 | 0.00 | 0.00 | 39 | 1014.3 |
| 20260505201429 | 75 | 91 | 2.0 | 3.0 | 0.00 | 0.00 | 0.00 | 38 | 1014.0 |
| 20260505200927 | 75 | 90 | 1.0 | 5.0 | 0.00 | 0.00 | 0.00 | 37 | 1014.3 |
| 20260505200424 | 75 | 160 | 3.0 | 5.0 | 0.00 | 0.00 | 0.00 | 36 | 1014.4 |
| 20260505195919 | 75 | 233 | 1.0 | 5.0 | 0.00 | 0.00 | 0.00 | 35 | 1014.9 |
| 20260505195417 | 75 | 116 | 1.0 | 3.0 | 0.00 | 0.00 | 0.00 | 38 | 1014.8 |
| 20260505194914 | 75 | 291 | 2.0 | 5.0 | 0.00 | 0.00 | 0.00 | 38 | 1014.5 |
| 20260505194412 | 75 | 74 | 1.0 | 7.0 | 0.00 | 0.00 | 0.00 | 37 | 1014.8 |
| 20260505193911 | 75 | 115 | 2.0 | 2.0 | 0.00 | 0.00 | 0.00 | 39 | 1014.8 |
| 20260505193409 | 75 | 92 | 1.0 | 2.0 | 0.00 | 0.00 | 0.00 | 38 | 1014.9 |
| 20260505192907 | 74 | 176 | 2.0 | 3.0 | 0.00 | 0.00 | 0.00 | 39 | 1015.1 |
| 20260505192405 | 74 | 92 | 1.0 | 3.0 | 0.00 | 0.00 | 0.00 | 40 | 1014.9 |
| 20260505191902 | 76 | 108 | 2.0 | 2.0 | 0.00 | 0.00 | 0.00 | 37 | 1015.2 |
| 20260505191401 | 76 | 109 | 1.0 | 2.0 | 0.00 | 0.00 | 0.00 | 38 | 1015.0 |
| 20260505190857 | 75 | 109 | 0.0 | 1.0 | 0.00 | 0.00 | 0.00 | 40 | 1015.3 |
| 20260505190353 | 73 | 109 | 2.0 | 2.0 | 0.00 | 0.00 | 0.00 | 41 | 1015.4 |
| 20260505185848 | 73 | 99 | 1.0 | 2.0 | 0.00 | 0.00 | 0.00 | 42 | 1015.7 |
| 20260505185345 | 73 | 300 | 3.0 | 5.0 | 0.00 | 0.00 | 0.00 | 42 | 1015.8 |
| 20260505184841 | 73 | 80 | 2.0 | 2.0 | 0.00 | 0.00 | 0.00 | 41 | 1015.7 |
| 20260505184338 | 74 | 76 | 2.0 | 2.0 | 0.00 | 0.00 | 0.00 | 41 | 1015.3 |
| 20260505183835 | 74 | 121 | 3.0 | 5.0 | 0.00 | 0.00 | 0.00 | 41 | 1015.5 |
| 20260505183332 | 74 | 83 | 0.0 | 2.0 | 0.00 | 0.00 | 0.00 | 41 | 1015.6 |
| 20260505182829 | 73 | 83 | 2.0 | 3.0 | 0.00 | 0.00 | 0.00 | 42 | 1015.4 |
| 20260505182326 | 74 | 255 | 4.0 | 5.0 | 0.00 | 0.00 | 0.00 | 40 | 1015.6 |
| 20260505181822 | 75 | 25 | 1.0 | 2.0 | 0.00 | 0.00 | 0.00 | 38 | 1015.7 |
| 20260505181320 | 75 | 293 | 1.0 | 2.0 | 0.00 | 0.00 | 0.00 | 38 | 1015.9 |
| 20260505180816 | 74 | 329 | 0.0 | 1.0 | 0.00 | 0.00 | 0.00 | 38 | 1015.8 |
| 20260505180313 | 74 | 310 | 3.0 | 6.0 | 0.00 | 0.00 | 0.00 | 38 | 1016.1 |
| 20260505175809 | 74 | 117 | 0.0 | 3.0 | 0.00 | 0.00 | 0.00 | 38 | 1016.3 |
| 20260505175306 | 75 | 268 | 3.0 | 5.0 | 0.00 | 0.00 | 0.00 | 38 | 1016.4 |
| 20260505174802 | 75 | 275 | 1.0 | 2.0 | 0.00 | 0.00 | 0.00 | 37 | 1016.3 |
| 20260505174300 | 74 | 275 | 1.0 | 1.0 | 0.00 | 0.00 | 0.00 | 37 | 1016.2 |
| 20260505173755 | 73 | 277 | 3.0 | 3.0 | 0.00 | 0.00 | 0.00 | 37 | 1016.6 |
| 20260505173252 | 72 | 332 | 1.0 | 7.0 | 0.00 | 0.00 | 0.00 | 38 | 1016.7 |
| 20260505172749 | 73 | 162 | 3.0 | 5.0 | 0.00 | 0.00 | 0.00 | 36 | 1017.0 |
| 20260505172246 | 72 | 180 | 2.0 | 5.0 | 0.00 | 0.00 | 0.00 | 37 | 1016.9 |
| 20260505171746 | 71 | 210 | 1.0 | 3.0 | 0.00 | 0.00 | 0.00 | 36 | 1016.9 |
| 20260505171243 | 72 | 220 | 1.0 | 2.0 | 0.00 | 0.00 | 0.00 | 37 | 1017.0 |
| 20260505170740 | 73 | 191 | 3.0 | 3.0 | 0.00 | 0.00 | 0.00 | 38 | 1016.9 |
| 20260505170237 | 73 | 235 | 2.0 | 2.0 | 0.00 | 0.00 | 0.00 | 37 | 1017.0 |
| 20260505165732 | 71 | 26 | 0.0 | 0.0 | 0.00 | 0.00 | 0.00 | 36 | 1016.6 |
| 20260505165229 | 71 | 234 | 3.0 | 5.0 | 0.00 | 0.00 | 0.00 | 37 | 1016.6 |
| 20260505164724 | 72 | 104 | 2.0 | 2.0 | 0.00 | 0.00 | 0.00 | 35 | 1016.9 |
| 20260505164221 | 71 | 68 | 2.0 | 7.0 | 0.00 | 0.00 | 0.00 | 36 | 1016.7 |
| 20260505163720 | 71 | 256 | 2.0 | 3.0 | 0.00 | 0.00 | 0.00 | 36 | 1016.9 |
| 20260505163218 | 71 | 169 | 3.0 | 5.0 | 0.00 | 0.00 | 0.00 | 37 | 1017.1 |
| 20260505162715 | 71 | 108 | 2.0 | 2.0 | 0.00 | 0.00 | 0.00 | 36 | 1017.1 |
| 20260505162212 | 71 | 135 | 1.0 | 7.0 | 0.00 | 0.00 | 0.00 | 37 | 1016.9 |
| 20260505161709 | 71 | 266 | 4.0 | 7.0 | 0.00 | 0.00 | 0.00 | 35 | 1017.3 |
| 20260505161206 | 71 | 115 | 1.0 | 5.0 | 0.00 | 0.00 | 0.00 | 37 | 1017.1 |
| 20260505160704 | 71 | 96 | 2.0 | 5.0 | 0.00 | 0.00 | 0.00 | 39 | 1017.0 |
| 20260505160201 | 71 | 281 | 2.0 | 3.0 | 0.00 | 0.00 | 0.00 | 44 | 1017.2 |
| 20260505153140 | 69 | 203 | 2.0 | 7.0 | 0.00 | 0.00 | 0.00 | 44 | 1017.4 |
| 20260505152637 | 69 | 344 | 3.0 | 5.0 | 0.00 | 0.00 | 0.00 | 46 | 1017.2 |
| 20260505152133 | 69 | 97 | 2.0 | 2.0 | 0.00 | 0.00 | 0.00 | 46 | 1017.3 |
| 20260505151628 | 70 | 155 | 2.0 | 2.0 | 0.00 | 0.00 | 0.00 | 49 | 1017.2 |
| 20260505151126 | 69 | 179 | 0.0 | 3.0 | 0.00 | 0.00 | 0.00 | 50 | 1017.3 |
| 20260505150622 | 69 | 268 | 2.0 | 3.0 | 0.00 | 0.00 | 0.00 | 51 | 1017.4 |
| 20260505150119 | 68 | 237 | 1.0 | 3.0 | 0.00 | 0.00 | 0.00 | 51 | 1017.4 |
| 20260505140547 | 64 | 6 | 1.0 | 2.0 | 0.00 | 0.00 | 0.00 | 64 | 1017.1 |
| 20260505125001 | 53 | 6 | 0.0 | 0.0 | 0.00 | 0.00 | 0.00 | 78 | 1016.8 |
| 20260505124457 | 53 | 6 | 0.0 | 0.0 | 0.00 | 0.00 | 0.00 | 78 | 1016.7 |
| 20260505123954 | 52 | 6 | 0.0 | 0.0 | 0.00 | 0.00 | 0.00 | 80 | 1016.7 |
| 20260505123450 | 52 | 6 | 0.0 | 1.0 | 0.00 | 0.00 | 0.00 | 82 | 1016.6 |
| 20260505122946 | 51 | 6 | 0.0 | 0.0 | 0.00 | 0.00 | 0.00 | 81 | 1016.7 |
| 20260505122444 | 51 | 6 | 0.0 | 0.0 | 0.00 | 0.00 | 0.00 | 82 | 1016.7 |
| 20260505121940 | 49 | 6 | 0.0 | 1.0 | 0.00 | 0.00 | 0.00 | 86 | 1016.7 |
| 20260505121437 | 48 | 6 | 0.0 | 1.0 | 0.00 | 0.00 | 0.00 | 89 | 1016.4 |
| 20260505120933 | 47 | 6 | 0.0 | 0.0 | 0.00 | 0.00 | 0.00 | 91 | 1016.7 |
| 20260505120430 | 47 | 6 | 0.0 | 0.0 | 0.00 | 0.00 | 0.00 | 91 | 1016.6 |
| 20260505115929 | 46 | 6 | 0.0 | 0.0 | 0.00 | 0.00 | 0.00 | 92 | 1016.4 |
| 20260505115426 | 46 | 6 | 0.0 | 0.0 | 0.00 | 0.00 | 0.00 | 92 | 1016.7 |
| 20260505114924 | 46 | 6 | 0.0 | 0.0 | 0.00 | 0.00 | 0.00 | 93 | 1016.6 |
| 20260505114420 | 45 | 6 | 0.0 | 0.0 | 0.00 | 0.00 | 0.00 | 93 | 1016.4 |
| 20260505113916 | 45 | 6 | 0.0 | 0.0 | 0.00 | 0.00 | 0.00 | 93 | 1016.6 |
| 20260505113413 | 45 | 6 | 0.0 | 0.0 | 0.00 | 0.00 | 0.00 | 92 | 1016.6 |
| 20260505112909 | 44 | 6 | 0.0 | 0.0 | 0.00 | 0.00 | 0.00 | 92 | 1016.3 |
| 20260505112407 | 44 | 6 | 0.0 | 0.0 | 0.00 | 0.00 | 0.00 | 92 | 1016.3 |
| 20260505111902 | 44 | 6 | 0.0 | 0.0 | 0.00 | 0.00 | 0.00 | 92 | 1016.2 |
| 20260505111357 | 44 | 6 | 0.0 | 0.0 | 0.00 | 0.00 | 0.00 | 92 | 1016.0 |
| 20260505110853 | 44 | 6 | 0.0 | 0.0 | 0.00 | 0.00 | 0.00 | 92 | 1016.1 |
| 20260505110351 | 44 | 6 | 0.0 | 0.0 | 0.00 | 0.00 | 0.00 | 92 | 1016.0 |
| 20260505101821 | 46 | 6 | 0.0 | 0.0 | 0.00 | 0.00 | 0.00 | 89 | 1015.9 |
| 20260505101316 | 46 | 6 | 0.0 | 0.0 | 0.00 | 0.00 | 0.00 | 89 | 1015.8 |
| 20260505100812 | 46 | 6 | 0.0 | 0.0 | 0.00 | 0.00 | 0.00 | 88 | 1015.6 |
| 20260505100309 | 47 | 6 | 0.0 | 1.0 | 0.00 | 0.00 | 0.00 | 88 | 1015.7 |
| 20260505095805 | 47 | 6 | 0.0 | 1.0 | 0.00 | 0.00 | 0.00 | 87 | 1015.9 |
| 20260505095304 | 48 | 6 | 0.0 | 1.0 | 0.00 | 0.00 | 0.00 | 87 | 1015.7 |
| 20260505094758 | 48 | 6 | 0.0 | 0.0 | 0.00 | 0.00 | 0.00 | 86 | 1015.7 |
| 20260505094255 | 48 | 6 | 0.0 | 0.0 | 0.00 | 0.00 | 0.00 | 86 | 1015.9 |
| 20260505093751 | 48 | 6 | 0.0 | 0.0 | 0.00 | 0.00 | 0.00 | 86 | 1015.9 |
| 20260505093249 | 48 | 6 | 0.0 | 1.0 | 0.00 | 0.00 | 0.00 | 86 | 1015.7 |
| 20260505092746 | 48 | 6 | 0.0 | 0.0 | 0.00 | 0.00 | 0.00 | 87 | 1015.9 |
| 20260505092244 | 48 | 6 | 0.0 | 0.0 | 0.00 | 0.00 | 0.00 | 87 | 1015.7 |
| 20260505091741 | 48 | 6 | 0.0 | 1.0 | 0.00 | 0.00 | 0.00 | 87 | 1015.8 |
| 20260505091239 | 47 | 6 | 0.0 | 0.0 | 0.00 | 0.00 | 0.00 | 88 | 1015.8 |
| 20260505090736 | 47 | 6 | 0.0 | 1.0 | 0.00 | 0.00 | 0.00 | 89 | 1015.7 |
| 20260505090234 | 46 | 6 | 1.0 | 1.0 | 0.00 | 0.00 | 0.00 | 91 | 1016.0 |
| 20260505085731 | 46 | 6 | 0.0 | 1.0 | 0.00 | 0.00 | 0.00 | 92 | 1016.1 |
| 20260505085230 | 46 | 6 | 0.0 | 0.0 | 0.00 | 0.00 | 0.00 | 92 | 1016.0 |
| 20260505084727 | 46 | 6 | 0.0 | 0.0 | 0.00 | 0.00 | 0.00 | 92 | 1015.9 |
| 20260505084226 | 46 | 6 | 0.0 | 0.0 | 0.00 | 0.00 | 0.00 | 92 | 1015.8 |
| 20260505083722 | 46 | 6 | 0.0 | 0.0 | 0.00 | 0.00 | 0.00 | 92 | 1015.8 |
| 20260505083219 | 46 | 6 | 0.0 | 0.0 | 0.00 | 0.00 | 0.00 | 92 | 1016.1 |
| 20260505082715 | 46 | 6 | 0.0 | 0.0 | 0.00 | 0.00 | 0.00 | 91 | 1016.0 |
| 20260505082213 | 47 | 6 | 0.0 | 0.0 | 0.00 | 0.00 | 0.00 | 91 | 1016.0 |
| 20260505081708 | 47 | 6 | 0.0 | 0.0 | 0.00 | 0.00 | 0.00 | 91 | 1016.0 |
| 20260505081206 | 47 | 6 | 0.0 | 0.0 | 0.00 | 0.00 | 0.00 | 91 | 1015.9 |
| 20260505080703 | 47 | 6 | 0.0 | 0.0 | 0.00 | 0.00 | 0.00 | 91 | 1016.1 |
| 20260505080158 | 47 | 6 | 0.0 | 0.0 | 0.00 | 0.00 | 0.00 | 91 | 1016.0 |